Helicity
74 31 80 144 163 156 136 109 93 107 138 118 91 82 76 90 77 108 115 95 96 118 107 111 94 89 95 100 104 99 101 104 76 71 64 72 73 77 70 72 64 61 75 73
0 68 104 89 84 81 87 77 73 107 83 93 93 95 47 73 94 70 80 109 107 133 112 98 97 90 89 106 118 113 118 118 93 81 82 74 61 62 76 60 67 74 67 62
49 96 89 82 79 90 93 76 119 104 71 102 82 77 23 66 39 50 55 109 130 109 96 108 93 89 104 123 129 121 133 132 104 80 85 66 55 61 78 75 73 79 67 55
71 64 39 40 46 82 86 191 99 108 81 95 132 167 58 74 45 33 70 111 141 107 79 95 92 95 110 140 137 136 147 124 113 88 81 61 66 53 67 55 70 69 69 55
94 42 37 41 77 86 120 73 92 92 102 115 89 132 43 67 68 65 21 72 86 72 72 88 74 96 130 145 137 149 139 124 113 93 63 64 62 50 47 62 65 74 61 51
19 37 35 75 80 62 67 29 23 39 65 65 62 73 30 112 97 73 32 33 49 60 69 90 87 117 160 149 143 140 123 125 101 76 75 61 43 32 46 68 79 71 63 47
23 72 43 25 4 35 10 7 62 44 38 35 85 54 45 120 51 26 35 23 37 56 85 95 130 136 159 148 140 125 121 119 89 74 72 44 29 36 59 67 67 51 56 49
28 62 69 32 19 27 22 7 26 12 8 9 39 14 16 21 21 57 62 66 83 89 66 98 116 137 146 143 133 121 114 98 79 77 51 35 38 57 66 63 58 62 59 55
78 62 37 24 1 4 44 7 35 -7 -7 4 -6 -26 44 89 92 37 12 61 85 72 64 113 121 126 141 140 129 122 98 85 77 61 33 43 51 52 60 50 53 60 49 61
94 95 43 6 4 32 15 82 6 -20 6 13 5 1 -26 8 83 -27 1 43 64 63 102 100 108 133 135 134 128 101 83 81 65 34 45 48 49 55 52 52 48 46 44 59
111 113 51 10 23 12 28 30 14 -10 1 18 24 -10 2 64 55 11 11 36 65 81 76 95 108 121 128 125 104 83 75 70 43 52 43 43 48 48 53 50 52 52 55 63
132 83 74 -10 57 31 18 -2 -10 4 -17 12 26 -1 -27 -2 -10 4 12 48 86 62 82 85 109 115 116 103 82 79 73 50 52 46 43 44 45 52 46 48 46 54 64 72
83 108 54 17 32 14 0 -14 -15 5 16 113 25 5 -38 19 16 -17 24 55 76 87 89 106 100 104 100 85 75 77 54 54 50 48 44 48 53 47 45 47 52 73 76 73
36 41 12 -3 19 20 4 6 -32 -39 22 91 106 95 152 41 8 16 23 35 80 94 99 97 92 92 84 79 73 60 58 50 51 52 52 54 51 51 54 54 69 88 85 73
99 2 33 32 51 54 77 68 14 189 180 225 58 17 174 65 -39 21 32 36 78 98 101 83 78 91 89 72 61 57 58 54 52 55 51 55 51 54 58 60 87 94 89 78
38 -21 30 52 30 16 53 14 111 146 133 176 121 79 24 -36 -34 47 25 35 71 98 84 71 78 90 73 68 60 63 56 55 52 59 54 50 49 56 58 67 86 78 83 88
-10 9 -1 43 44 67 32 47 62 73 82 87 80 65 18 -5 -6 21 18 17 74 83 69 70 86 59 66 64 56 64 62 54 56 59 52 53 53 57 61 76 82 74 90 98
14 12 22 52 88 19 38 32 42 41 27 17 35 51 23 0 5 0 8 23 55 64 49 72 58 52 73 59 60 63 61 58 60 59 58 53 55 58 63 80 78 80 104 99
28 13 29 59 68 85 17 37 49 39 15 5 30 8 26 38 51 14 3 7 34 29 35 59 47 58 69 60 65 68 65 61 68 60 59 53 54 61 64 78 84 86 105 105
-4 3 33 52 57 55 28 75 24 2 9 25 35 25 -8 8 7 12 47 42 24 22 47 51 52 59 67 64 65 66 66 61 72 56 57 53 56 62 64 81 97 96 105 102
13 20 24 23 81 84 82 109 36 51 30 28 38 33 -15 16 56 53 67 26 18 38 53 46 52 56 66 67 63 67 68 70 65 60 61 57 59 60 70 83 99 114 113 107
69 58 11 13 65 71 47 79 85 57 36 25 30 26 5 43 -1 52 70 43 34 60 49 43 56 57 64 62 59 71 67 60 63 62 68 61 58 65 78 77 93 103 116 122
62 43 19 34 47 86 176 49 31 44 56 43 44 9 8 23 -4 39 69 32 29 43 35 37 57 65 61 55 55 74 74 63 64 66 76 73 67 66 67 72 84 110 120 144
29 96 32 66 67 115 102 31 33 42 52 62 47 8 17 9 8 39 55 42 32 28 38 47 64 69 69 55 55 66 73 62 62 65 78 80 73 72 67 81 89 109 119 144
137 66 142 184 177 163 0 119 88 105 56 54 38 14 26 -12 9 47 50 31 27 27 30 50 65 65 68 65 57 69 68 62 59 57 67 81 86 82 82 79 82 96 102 123
68 92 119 106 213 160 225 226 223 82 58 43 26 18 27 10 27 31 33 28 27 40 47 52 55 57 69 65 60 62 62 57 57 57 58 63 81 85 89 99 115 79 85 81
Wind_Speed
39 39 45 47 46 47 50 54 59 57 50 53 51 44 42 28 24 24 19 15 12 10 8 9 9 10 13 16 21 27 34 42 50 57 59 59 58 56 58 59 59 61 65 67
40 47 41 39 42 47 52 58 61 61 48 44 51 51 47 37 29 22 20 16 12 7 6 7 8 10 12 16 22 28 36 44 53 57 57 56 56 57 57 54 57 60 64 64
48 45 43 46 47 52 54 61 68 75 62 47 58 64 47 36 27 25 23 18 10 5 1 4 7 10 12 16 22 29 38 47 54 57 55 57 55 56 56 60 59 64 63 64
43 44 43 41 48 49 62 56 67 73 65 68 40 75 46 39 35 32 26 16 9 8 3 6 10 12 14 17 23 31 39 48 53 56 56 60 61 63 61 59 62 63 62 63
47 50 51 51 55 50 62 57 61 65 62 57 50 55 47 40 37 39 32 4 12 9 8 8 13 15 15 19 25 32 41 48 52 54 57 59 60 60 61 64 65 65 64 63
48 45 46 50 47 47 50 54 60 55 49 51 39 40 36 38 43 47 39 13 9 12 11 11 18 18 18 21 27 34 42 48 51 54 55 58 59 62 65 69 68 67 66 64
60 48 48 48 51 40 45 59 67 55 44 45 31 29 36 41 46 47 47 24 5 13 15 24 21 19 20 22 28 35 43 49 51 53 56 57 59 61 64 68 67 68 69 66
62 53 57 56 48 52 51 48 48 49 47 39 28 28 34 36 45 46 38 20 15 18 28 26 22 21 22 25 30 37 44 48 50 53 55 56 60 63 63 65 66 66 66 63
61 53 53 46 42 40 44 40 36 42 44 33 40 37 28 42 48 41 33 20 21 31 31 26 26 24 25 28 33 40 44 47 51 52 53 58 61 63 63 63 65 65 62 58
51 61 46 38 34 35 32 31 35 33 36 34 34 37 33 25 40 24 32 26 29 34 30 30 28 27 29 32 37 40 44 47 49 50 55 58 60 61 60 62 65 65 60 50
57 44 44 37 29 33 30 31 37 35 33 32 30 31 28 20 21 24 33 31 34 33 35 33 31 31 32 35 38 41 44 46 48 52 55 58 60 61 61 63 66 64 50 46
49 45 46 33 30 32 39 42 39 36 32 38 36 31 29 33 43 37 36 33 35 39 38 36 34 34 35 37 39 42 43 45 50 52 55 59 60 59 63 67 68 60 48 41
50 40 48 28 24 28 38 37 38 39 40 39 39 34 27 33 37 34 33 36 39 41 40 38 36 36 37 38 39 42 43 47 49 52 56 58 60 60 65 68 66 47 41 43
31 30 28 35 43 51 48 49 45 39 35 38 35 34 31 33 25 31 38 39 41 43 42 39 39 38 38 38 40 42 44 46 49 52 54 58 58 60 64 67 61 38 35 29
39 29 53 58 55 53 56 53 48 39 43 35 30 28 30 26 29 38 39 42 44 44 42 42 42 40 39 40 41 43 44 47 49 52 55 56 57 59 63 65 49 36 39 24
49 33 52 50 47 45 49 49 47 46 47 42 35 32 27 27 35 34 42 45 45 45 46 48 44 42 41 41 41 44 46 48 51 53 56 54 57 59 64 62 39 32 33 26
55 46 42 44 41 43 37 36 38 39 45 41 37 32 28 31 37 43 46 48 48 49 53 50 47 44 43 43 44 46 47 49 52 54 54 53 56 59 64 58 40 32 30 32
43 48 44 43 39 35 28 27 29 32 33 36 41 39 32 32 44 48 50 50 50 56 56 53 50 47 47 46 47 48 48 50 53 54 53 52 55 57 61 56 40 34 34 32
39 48 44 41 37 38 22 23 25 25 22 27 28 28 21 22 33 47 54 52 56 60 58 55 52 50 50 49 49 49 49 50 52 54 52 51 52 56 60 55 38 34 41 31
38 56 43 37 38 35 22 24 26 31 25 28 26 27 48 48 50 55 56 58 62 62 60 59 56 54 53 51 50 51 51 50 51 52 50 49 50 54 60 52 39 33 42 33
39 45 57 48 42 37 29 31 27 23 30 30 27 34 52 45 27 49 57 65 65 64 64 62 59 56 54 52 52 53 52 52 51 50 51 49 49 52 56 56 42 36 41 41
41 42 46 48 46 39 29 29 26 33 31 28 24 25 56 22 28 55 59 69 67 68 66 63 60 57 55 54 53 54 54 53 52 50 52 50 50 50 53 58 54 43 40 38
42 38 46 47 44 37 38 33 32 28 30 27 23 34 45 19 48 61 57 68 67 69 67 63 61 59 56 54 52 54 54 54 54 54 53 52 51 50 52 56 60 57 50 44
44 49 48 43 43 41 38 30 34 31 33 31 31 45 48 15 61 62 57 58 67 69 67 64 62 59 57 55 53 55 55 55 55 56 56 53 53 52 52 55 58 61 60 56
55 47 44 51 47 37 46 38 39 36 33 33 37 50 41 49 68 66 69 55 64 67 66 64 62 59 57 56 55 56 56 55 55 56 56 56 54 54 56 58 56 61 64 61
46 46 45 45 41 40 45 45 37 33 32 32 41 45 36 64 67 66 67 52 62 66 66 63 61 59 58 57 56 56 56 54 54 55 54 55 56 55 54 55 58 58 60 61
Wind_Direction
341 334 328 328 328 325 322 319 316 317 320 318 313 312 319 314 303 301 302 304 311 326 5 34 51 53 55 35 24 18 11 7 1 358 357 357 357 358 357 356 356 356 354 352
341 331 337 338 334 329 324 320 318 319 320 319 316 311 311 309 299 292 293 290 293 312 349 48 60 69 59 40 26 18 11 6 1 0 360 1 360 359 358 0 359 358 355 354
335 336 337 333 331 328 326 321 320 315 320 313 312 310 308 315 308 305 295 291 279 243 160 48 88 83 63 46 27 18 10 5 3 3 5 3 3 3 3 1 0 357 356 355
345 349 345 342 334 333 324 332 325 321 317 311 318 309 319 324 321 312 306 284 230 196 169 97 105 93 80 41 29 18 11 6 6 7 6 4 3 1 3 3 0 358 359 358
345 342 338 332 330 335 327 335 330 328 321 316 310 310 318 327 329 328 322 255 192 187 142 105 109 96 69 47 28 18 12 9 10 10 8 8 8 7 6 3 2 2 1 0
349 352 349 344 344 341 339 336 331 333 332 322 323 320 326 328 322 320 334 354 156 152 126 95 100 89 66 44 28 20 15 13 13 12 13 12 11 9 7 5 5 4 3 2
344 352 352 352 341 349 346 337 334 336 339 336 355 345 314 306 309 295 303 348 87 126 116 115 103 89 65 44 30 23 17 15 15 17 15 15 14 11 10 9 8 6 4 5
344 345 351 352 351 343 347 349 344 341 344 346 360 350 279 307 320 308 329 6 84 105 117 112 98 82 62 46 35 25 20 19 21 19 19 19 16 15 14 13 11 9 8 8
346 345 354 359 360 2 359 358 356 352 281 334 231 249 321 305 323 331 357 28 85 111 113 99 93 79 62 50 36 28 27 26 24 24 24 21 20 19 18 18 15 13 13 14
351 341 354 359 8 14 10 11 332 285 357 290 258 244 235 229 316 148 50 57 91 104 97 98 89 75 63 50 40 38 34 31 31 30 27 25 24 24 24 22 19 18 19 25
349 349 350 356 4 2 12 343 282 271 246 260 240 233 245 161 268 25 52 76 94 95 102 96 85 76 63 56 50 44 40 38 36 33 31 30 29 29 28 25 23 23 30 31
355 348 342 345 358 355 321 280 260 236 242 270 255 220 316 28 12 48 71 79 89 100 100 95 87 75 71 62 55 50 47 46 40 38 36 34 33 34 31 28 27 32 39 38
351 350 344 3 22 353 268 267 256 248 265 237 248 268 106 33 19 55 72 91 98 103 101 96 87 80 75 67 63 58 56 49 47 43 41 40 40 39 35 32 33 44 45 43
359 347 343 336 296 267 252 249 248 219 228 255 223 222 225 245 103 73 98 103 106 108 108 99 95 93 85 78 72 67 61 57 52 50 48 46 46 43 40 38 42 52 51 40
357 338 291 265 256 249 249 243 237 196 231 214 210 194 222 210 141 119 108 111 112 113 109 110 112 104 96 88 79 73 69 61 58 56 52 52 51 48 45 44 52 57 57 38
328 322 269 248 254 251 250 244 222 213 219 209 218 220 187 186 125 105 118 118 118 115 118 127 121 113 102 92 87 79 72 64 61 60 56 58 55 52 49 51 58 59 59 47
268 265 255 236 247 265 244 241 238 222 206 210 209 227 170 139 128 125 123 124 121 123 133 133 130 122 105 100 91 82 76 69 65 64 64 64 60 57 54 58 64 60 60 62
223 239 239 234 245 230 245 278 256 249 248 234 233 240 169 207 134 127 129 123 121 136 141 137 134 121 111 102 93 89 83 76 70 69 70 69 65 63 61 65 68 65 68 65
175 234 231 226 237 228 251 276 266 253 310 298 260 227 33 42 79 115 133 125 132 145 142 137 130 122 111 103 98 94 89 83 78 75 76 75 72 69 66 70 71 70 72 65
244 221 233 232 228 220 246 276 243 220 269 291 261 246 143 128 138 141 129 131 146 142 139 134 128 123 112 108 104 98 92 89 86 83 83 82 79 76 71 75 77 75 77 70
238 234 222 229 227 232 258 281 249 251 253 275 260 216 147 162 218 112 121 141 141 142 137 133 129 124 116 113 107 100 98 93 93 92 89 88 86 82 78 78 82 80 80 78
234 232 225 225 222 224 291 273 277 265 251 267 277 227 149 226 83 112 118 150 152 141 134 136 130 125 118 116 112 105 101 99 98 98 94 92 90 89 84 81 82 84 83 77
234 243 235 228 229 245 268 262 294 261 245 258 256 205 186 221 108 120 115 161 157 142 141 138 131 122 120 119 117 112 108 104 101 100 99 96 95 93 89 86 84 85 86 85
240 249 231 241 229 247 252 284 289 273 256 252 232 187 184 176 123 120 115 175 161 148 144 140 131 125 121 123 120 117 114 109 105 102 101 102 99 96 94 92 89 87 87 88
240 241 230 229 234 254 213 287 289 271 254 244 220 187 199 112 132 126 136 181 167 154 149 142 137 130 125 124 122 121 119 116 110 106 104 102 103 102 99 95 94 92 90 89
233 231 226 226 257 245 255 273 276 266 252 238 209 198 205 151 131 129 133 185 173 159 150 142 139 132 128 128 125 123 121 119 115 111 109 107 105 105 105 104 100 96 96 94